COSMOS 1275 DEB, 42181

Orbit data source: Space-Track

COSMOS 1275 DEB, 42181 is space debris in LEO originally from a launch on Thu, 04 Jun 1981 UTC launched from the Plesetsk Missile And Space Complex (PKMTR). Debris objects in space refer to the collection of defunct objects orbiting the Earth. Examples of debris include non-operational satellites, rocket bodies, and fragments generated from explosions, collisions, or faulty payload assembly.

Loading next visibility...
Identifier
42181, 1981-053SV
Orbit
LEO
Country
Flag of CISCIS
Related business
Manufacturer
Unknown
Mission
Spacecraft
Bus & Motor
Unknown
Mass
Unknown
Launch date (UTC)
1981-06-04 (45 years ago)
Launch vehicle
Unknown
Launch site
Plesetsk Missile And Space Complex (PKMTR)
Object type
Payload
Rocket body
Debris
Shape & HBR
Unknown shape, 0.1 m
Radar Cross Section
Small (<0.1 m²)

Expand to show TLE details & history
Last TLE update: 4 days ago

TLE from 4 days ago
0 COSMOS 1275 DEB
1 42181U 81053SV  26069.18851497  .00002319  00000-0  17040-2 0  9998
2 42181  82.9020 147.2563 0070985  30.8758 329.6553 13.94086755 65144
Epoch: 2026-03-10T04:31Z
TLE epoch observation values (Epoch: 2026-03-10T04:31:27.693Z)
Latitude
-0.00002°
Longitude
-88.47978°
Altitude
872.681 km
Speed
7.439 km/s
True Right ascension
09h 49m 01s
True Declination
0° 00' 00"
Sunlit
Object was in full shadow at epoch
Visualization orbit readout
Latitude
Unknown
Longitude
Unknown
Altitude
Unknown
Speed
Unknown
Apparent Right ascension
Unknown
Apparent Declination
Unknown
Sunlit
N/A
Visualization observer readout
Local Sidereal Time
23:37:42
Azimuth
Unknown
Elevation
Unknown
Doppler factor
Unknown
Orbital elements
Apogee altitude
963.213 km
Perigee altitude
859.723 km
Semi-major axis
7,289.605 km
Eccentricity
0.0071
Inclination
82.902°
RAAN
147.2563°
Arg. of periapsis
30.8758°
True anomaly
329.24119°
Mean anomaly
329.6553°
Eccentric anomaly
329.44856°
Mean motion
3.48728 °/min
Orbital period
103.23 mins
BSTAR
0.001704
Loading maneuver chart data...
Computing Atmospheric mass density...
Loading historical data...
Loading historical data...
Loading historical data...
Loading historical data...
Loading historical data...
Loading historical data...
Loading historical data...

Documentation

Showing up to 5 results
|